sat.trackr.live / text

‹ back to catalog

LAPAN-TUBSAT

NORAD 29709 · 2007-001A

PAYLOAD ACTIVE UNKNOWN

§ Identity

Operator
Country
INDO
Launch date
2007-01-10
Launch site
SRILR
Launch vehicle
Mass (kg)
RCS (m²)
0.36

Purposes: earth_obs

External: N2YO · Heavens-Above · Gunter

§ Orbital elements

Epoch: 2026-05-25T03:46:23.206656Z

Period
96.91 min
Inclination
98.1346°
Eccentricity
0.0010714
Mean motion
14.85924164 rev/d
Perigee alt
603.2 km
Apogee alt
618.2 km
Semi-major
6,988.8 km
B*
9.8682e-5
RAAN
143.8637°
Arg perigee
260.6002°
Mean anomaly
99.4001°
Rev number
4,773

§ Raw data

LAPAN-TUBSAT1 29709U 07001A   26145.15721304  .00000804  00000+0  98682-4 0  99942 29709  98.1346 143.8637 0010714 260.6002  99.4001 14.85924164 47739

JSON: /api/v1/satellites/29709 · /tle

For live sub-satellite position, see the globe view (requires WebGL).

§ Visibility from observer

Set your observer location to see the next 7 days of passes ≥ 10°. The values pass through the URL so the page stays shareable.

No JS? Fill the form by hand. The geolocation button needs JavaScript.

§ Radio — SatNOGS DB

ModeDescriptionDownlinkUplink
FM Mode U1 436.075 MHz
FM Mode U2 437.325 MHz

2 transmitters · refreshed weekly from db.satnogs.org